DECAYED

FENGYUN 1C DEB, 38503 (Decayed)

Orbit data source: Space-Track

FENGYUN 1C DEB, 38503 was space debris in SSO originally from a launch on Mon, 10 May 1999 UTC launched from the Taiyaun Space Center, China (TSC). Fengyun 1C debris stems from the Chinese weather satellite Fengyun-1C, which was intentionally destroyed by a Chinese anti-satellite missile in 2007. This event dramatically increased the amount of space debris, with thousands of trackable fragments posing hazards to satellites and human spaceflight. The Fengyun 1C debris cloud has become a focal point in discussions about space sustainability and the need for international regulations to prevent the creation of new debris.

Not visible in the next 10 days
Identifier
38503, 1999-025ESN
Orbit
Decayed
Country
Flag of CNCN / PRC
Related business
Manufacturer
Unknown
Mission
Decayed spacecraft
Bus & Motor
Unknown
Mass
Unknown
Launch date (UTC)
1999-05-10 (27 years ago)
Launch vehicle
Unknown
Launch site
Taiyaun Space Center, China (TSC)
Object type
Payload
Rocket body
Debris
Shape & HBR
Unknown shape, 0.1 m
Radar Cross Section
Small (<0.1 m²)

Expand to show TLE details & history
Last TLE update: 1 year ago

TLE from 1 year ago
0 FENGYUN 1C DEB
1 38503U 99025ESN 25005.39120471  .00170555  00000-0  74962-2 0  9996
2 38503  99.4626 246.8412 0032915 216.3569 143.5424 15.20651782755766
Epoch: 2025-01-05T09:23Z
TLE epoch observation values (Epoch: 2025-01-05T09:23:20.086Z)
Latitude
-0.00006°
Longitude
0.77977°
Altitude
525.147 km
Speed
7.591 km/s
True Right ascension
16h 27m 21s
True Declination
0° 00' 00"
Sunlit
Object was in daylight at epoch
Visualization orbit readout
Latitude
Unknown
Longitude
Unknown
Altitude
Unknown
Speed
Unknown
Apparent Right ascension
Unknown
Apparent Declination
Unknown
Sunlit
N/A
Visualization observer readout
Local Sidereal Time
22:13:32
Azimuth
Unknown
Elevation
Unknown
Doppler factor
Unknown
Orbital elements
Apogee altitude
523.581 km
Perigee altitude
478.296 km
Semi-major axis
6,879.075 km
Eccentricity
0.00329
Inclination
99.4626°
RAAN
246.8412°
Arg. of periapsis
216.3569°
True anomaly
143.76579°
Mean anomaly
143.5424°
Eccentric anomaly
143.65417°
Mean motion
3.80407 °/min
Orbital period
94.64 mins
BSTAR
0.0074962
Loading maneuver chart data...
Computing Atmospheric mass density...
Loading historical data...
Loading historical data...
Loading historical data...
Loading historical data...
Loading historical data...
Loading historical data...
Loading historical data...

Documentation

Showing up to 5 results
|